Location: The Saddle
(36.8333°N, 80.3417°W)
Time: 13:12:32
(UTC-04:00)

Courier 1B - Pass Details

Date: 22 September 2024
Orbit: 962 x 1208 km, 28.3° (Epoch: 06 October)

Event Time Altitude Azimuth Distance (km) Brightness Sun altitude
Rises 17:37:13 0° 264° (W) 3,867 12.2 19.0°
Reaches altitude 10° 17:40:37 10° 249° (WSW) 2,955 12.4 18.4°
Maximum altitude 17:45:51 21° 203° (SSW) 2,287 10.1 17.3°
Drops below altitude 10° 17:51:16 10° 157° (SSE) 3,071 10.1 16.3°
Sets 17:54:54 0° 142° (SE) 4,062 10.5 15.6°
